Regional Weather Roundup
Issued by NWS Newport/Morehead, NC

Current Version | Previous Version | Text Only | Print | Product List | Glossary On
Versions: 1 2 3 4 5 6 7 8 9 10 11 12 13 14 15 16 17 18 19 20 21 22 23 24 25 26 27 28 29 30 31 32 33 34 35 36 37 38 39 40 41 42 43 44 45 46 47 48 49 50
000
ASUS42 KMHX 200310
RWRMHX
WEATHER ROUNDUP FOR EASTERN NORTH CAROLINA
NATIONAL WEATHER SERVICE NEWPORT/MOREHEAD CITY NC
1100 PM EDT SAT APR 19 2014

NOTE: "FAIR" INDICATES FEW OR NO CLOUDS BELOW 12,000 FEET
WITH NO SIGNIFICANT WEATHER AND/OR OBSTRUCTIONS TO VISIBILITY

NCZ015>017-031-032-045>047-102-103-200400-
NORTH COAST

CITY           SKY/WX    TMP DP  RH WIND       PRES   REMARKS
EDENTON        LGT RAIN  48  43  84 N9        30.21F
ELIZABETH CITY CLOUDY    50  43  77 N8        30.22F
KITTY HAWK     LGT RAIN  49  47  93 N10G18    30.17S
MANTEO         CLOUDY    50  48  93 N16       30.18S

$$

NCZ045>047-081-094-103-104-200400-
CENTRAL COAST

CITY           SKY/WX    TMP DP  RH WIND       PRES   REMARKS
FRISCO         LGT RAIN  53  53 100 N12G20    30.12S
SWANQUARTER      N/A     52 N/A N/A N9G15     30.12S

$$

NCZ095-097-098-100-101-200400-
SOUTHERN COAST

CITY           SKY/WX    TMP DP  RH WIND       PRES   REMARKS
BEAUFORT       LGT RAIN  53  52  96 NE18G28   30.11S
CEDAR ISLAND     N/A     54 N/A N/A N28       30.18S
JACKSONVILLE   LGT RAIN  49  49 100 N17G28    30.12S
NEWPORT          N/A     52  50  93 N12         N/A
PINEY ISLAND   CLOUDY    55  53  93 N20G29    30.13S
WILMINGTON     CLOUDY    52  48  86 N21G32    30.07F


$$

NCZ011>013-027>030-043-044-078>080-089-090>093-098-200400-
COASTAL PLAIN

CITY           SKY/WX    TMP DP  RH WIND       PRES   REMARKS
AHOSKIE        CLOUDY    51  42  71 N7        30.24F
CLINTON        CLOUDY    50  45  84 NE10G23   30.16F
ELIZABETHTOWN  RAIN      49  48  99 N8        30.13S
GOLDSBORO      LGT RAIN  50  45  83 NE6       30.18S
GREENVILLE     DRIZZLE   48  45  87 NE9G16    30.22F
HAVELOCK       LGT RAIN  51  48  89 NE17      30.14F
KENANSVILLE    CLOUDY    48  44  84 NE9G17    30.17R
KINSTON        RAIN      49  44  84 N10       30.18F
NEW BERN       LGT RAIN  50  47  89 N12       30.17S
RICHLANDS      CLOUDY    48  48 100 N13       30.14S
ROANOKE RAPIDS NOT AVBL
ROCKY MOUNT    CLOUDY    53  40  61 NE13      30.23R
WASHINGTON     CLOUDY    47  43  85 N12       30.21S
WHITEVILLE     CLOUDY    51  49  95 NE10      30.09F

$$

AMZ130-135-150-152-154-156-158-170-250-252-270-ANZ085-086-088-633-658-670-200400-
MARINE OBSERVATIONS

STATION/POSITION TIME  TEMP    WIND        PRES    WAVE   SWELL
                       AIR SEA DIR/SP/G            HT/PER HT/PER
                 (UTC) (F)     (DEG/KT/KT) (MB)    (FT/S) (FT/S)
CHESAPEAKE LIGHT 0200   47      40/ 19/ 21 1023.6
BUOY 44014       0300   52 49   30/ 17/ 19 1021.5    7/ 9   3/ 9
DUCK             0300   49 49   10/ 15/ 18 1021.2
2E DUCK          0300      47                N/A     6/ 8   2/11
OREGON INLET     0300   50 51  350/ 14/ 18 1021.0
BUOY 44095       0300      48                N/A     8/ 9   2/11
HATTERAS CG      0300   55 56   10/ 10/ 18 1020.0
DIAMOND BUOY     NOT AVBL
CAPE LOOKOUT     0200   54      20/ 20/ 23 1019.1
BEAUFORT LAB     0300   53 57   20/ 15/ 21 1018.9
30 SE NEW RIVER  0300   58 66   30/ 31/ 37 1016.3    9/ 7   3/10
5 SE WRIGHTSVILL 0200   55 59   40/ 29/ 37 1017.3
FRYING PAN BUOY  0300   62 68   50/ 31/ 37 1014.3   10/ 8   3/10
BUOY 41001       NOT AVBL
BUOY 41002       NOT AVBL
BUOY 41004       NOT AVBL

$$



USA.gov is the U.S. government's official web portal to all federal, state and local government web resources and services.